Tulsa Jones, OK

6:56 PM CDT on August 20, 2017 (GMT -0500)
Jones Jr.

Weather History for KRVS - May, 2013

Change the Weather History Date:

Thursday, May 2, 2013

  Actual Average (KTUL) Record (KTUL)
Temperature  
Mean Temperature 47 °F -  
Max Temperature 57 °F 73 °F 94 °F (1943)
Min Temperature 37 °F 52 °F 32 °F (1909)
Degree Days  
Heating Degree Days 18    
Moisture  
Dew Point 38 °F    
Average Humidity 82    
Maximum Humidity 93    
Minimum Humidity 64    
Precipitation  
Precipitation 0.22 in - - ()
Sea Level Pressure  
Sea Level Pressure 30.33 in    
Wind  
Wind Speed 11 mph (North)    
Max Wind Speed 18 mph    
Max Gust Speed 33 mph    
Visibility 10 miles    
Events Rain    
Averages and records for this station are not official NWS values.
T = Trace of Precipitation, MM = Missing Value Source: NWS Daily Summary

Daily Weather History Graph

Daily Weather History Graph

Search for Another Location

Airport or City:

Trip Planner

Search our weather history database for the weather conditions in past years. The results will help you decide how hot, cold, wet, or windy it might be!

Date:

Astronomy

May. 02, 2013 Rise Set
Actual Time 6:29 AM CDT 8:12 PM CDT
Civil Twilight 6:02 AM CDT 8:39 PM CDT
Nautical Twilight 5:29 AM CDT 9:13 PM CDT
Astronomical Twilight 4:53 AM CDT 9:48 PM CDT
Moon 2:04 AM CDT (5/2) 1:16 PM CDT (5/2)
Length of Visible Light 14h 37m
Length of Day
13h 42m
Waning Gibbous, 47% of the Moon is Illuminated
May 2
Waning Gibbous
May 9
New
May 17
First Quarter
May 24
Full
May 31
Last Quarter

Hourly Weather History & Observations

Time (CDT) Temp. Windchill Dew Point Humidity Pressure Visibility Wind Dir Wind Speed Gust Speed Precip Events Conditions
12:53 AM 57.0 °F - 45.0 °F 64% 30.12 in 10.0 mi North 5.8 mph - N/A   Overcast
1:53 AM 53.1 °F - 43.0 °F 69% 30.16 in 10.0 mi NNW 9.2 mph 18.4 mph N/A   Clear
2:53 AM 51.1 °F - 42.1 °F 71% 30.19 in 10.0 mi North 8.1 mph 21.9 mph N/A   Mostly Cloudy
3:53 AM 50.0 °F - 41.0 °F 71% 30.21 in 10.0 mi NNW 12.7 mph 18.4 mph N/A   Mostly Cloudy
4:53 AM 48.0 °F - 39.0 °F 71% 30.23 in 10.0 mi NNW 10.4 mph 18.4 mph N/A   Overcast
5:53 AM 46.9 °F - 37.9 °F 71% 30.24 in 10.0 mi North 10.4 mph 20.7 mph N/A   Overcast
6:53 AM 46.9 °F - 39.0 °F 74% 30.28 in 10.0 mi NNW 6.9 mph 18.4 mph N/A   Overcast
7:53 AM 46.0 °F 42.5 °F 39.9 °F 79% 30.31 in 10.0 mi Variable 6.9 mph - N/A   Overcast
8:53 AM 46.9 °F - 39.9 °F 77% 30.32 in 10.0 mi North 10.4 mph 21.9 mph N/A   Overcast
9:22 AM 46.4 °F 41.1 °F 41.0 °F 81% 30.29 in 10.0 mi NNW 11.5 mph 19.6 mph N/A   Overcast
9:53 AM 45.0 °F 37.6 °F 39.0 °F 80% 30.32 in 10.0 mi North 17.3 mph 25.3 mph N/A   Overcast
10:40 AM 46.4 °F 40.7 °F 39.2 °F 76% 30.31 in 10.0 mi NNE 12.7 mph 25.3 mph N/A   Overcast
10:53 AM 46.0 °F 40.2 °F 39.0 °F 76% 30.34 in 10.0 mi North 12.7 mph 20.7 mph N/A   Overcast
11:53 AM 45.0 °F 39.7 °F 37.9 °F 76% 30.35 in 10.0 mi North 10.4 mph 23.0 mph N/A   Overcast
12:53 PM 44.1 °F 38.6 °F 36.0 °F 73% 30.35 in 10.0 mi North 10.4 mph 29.9 mph N/A   Overcast
2:53 PM 42.1 °F 35.2 °F 37.9 °F 85% 30.37 in 10.0 mi North 12.7 mph 23.0 mph 0.04 in   Overcast
3:53 PM 41.0 °F 33.9 °F 36.0 °F 82% 30.38 in 10.0 mi North 12.7 mph 23.0 mph 0.01 in Rain Light Rain
4:53 PM 39.9 °F 31.8 °F 36.0 °F 86% 30.38 in 10.0 mi North 15.0 mph 21.9 mph 0.01 in Rain Light Rain
5:53 PM 39.9 °F 32.9 °F 37.0 °F 89% 30.39 in 10.0 mi North 11.5 mph 21.9 mph 0.03 in Rain Light Rain
6:28 PM 39.2 °F 30.2 °F 35.6 °F 87% 30.37 in 10.0 mi North 17.3 mph 28.8 mph 0.01 in Rain Light Rain
6:53 PM 39.0 °F 30.6 °F 36.0 °F 89% 30.39 in 7.0 mi North 15.0 mph 24.2 mph 0.03 in Rain Light Rain
7:09 PM 39.2 °F 32.0 °F 35.6 °F 87% 30.38 in 7.0 mi North 11.5 mph 24.2 mph 0.01 in Rain Light Rain
7:53 PM 37.9 °F 31.5 °F 35.1 °F 89% 30.41 in 6.0 mi North 9.2 mph 17.3 mph 0.03 in Rain Light Rain
8:53 PM 37.9 °F 28.2 °F 35.1 °F 89% 30.41 in 10.0 mi North 18.4 mph 33.4 mph 0.03 in Rain Light Rain
9:01 PM 37.4 °F 29.3 °F 35.6 °F 93% 30.39 in 10.0 mi North 12.7 mph 28.8 mph 0.00 in Rain Light Rain
9:42 PM 37.4 °F 29.3 °F 35.6 °F 93% 30.40 in 10.0 mi North 12.7 mph 23.0 mph 0.02 in Rain Light Rain
9:49 PM 37.4 °F 29.8 °F 35.6 °F 93% 30.40 in 9.0 mi North 11.5 mph 19.6 mph 0.02 in Rain Light Rain
9:53 PM 37.9 °F 30.0 °F 35.1 °F 89% 30.43 in 9.0 mi North 12.7 mph 21.9 mph 0.02 in Rain Light Rain
10:02 PM 37.4 °F 29.8 °F 35.6 °F 93% 30.40 in 9.0 mi North 11.5 mph 23.0 mph 0.01 in Rain Light Rain
10:53 PM 37.9 °F 31.5 °F 35.1 °F 89% 30.42 in 10.0 mi North 9.2 mph 26.5 mph 0.02 in   Overcast
11:51 PM 37.4 °F 27.8 °F 33.8 °F 87% 30.37 in 10.0 mi North 17.3 mph 27.6 mph 0.00 in   Overcast
11:53 PM 37.9 °F 29.6 °F 34.0 °F 86% 30.39 in 10.0 mi North 13.8 mph 27.6 mph 0.00 in   Overcast